Temperature
22 22 21 20 18 17 17 17 17 16 16 16 16 15 15 15 15 15 15 15 15 15 14 14 14 14 15 15 15 15 15 15 16 16 16 16 16 15 15 13 13 13 13
23 23 21 20 18 17 17 16 16 16 16 16 15 15 15 15 15 15 15 15 15 15 15 14 14 15 15 15 15 15 15 15 15 15 14 15 15 15 14 14 14 14 13
22 22 21 20 18 17 16 16 16 16 16 15 15 15 15 15 15 15 15 15 15 15 15 15 15 15 15 15 15 15 15 14 14 13 13 13 14 14 14 14 14 14 13
21 22 21 20 18 17 16 16 16 15 15 15 15 15 16 16 15 15 15 15 15 15 15 15 15 15 15 15 15 14 14 14 13 13 13 13 13 14 14 14 14 14 14
19 20 21 19 18 17 16 16 15 15 15 15 15 16 16 16 15 15 15 15 14 14 15 15 15 15 15 15 14 14 14 13 13 13 13 13 13 14 14 14 13 13 13
18 19 20 19 18 16 16 16 15 15 15 16 16 16 16 16 15 15 15 15 15 15 15 15 15 15 15 15 14 14 14 13 13 13 13 13 13 13 13 13 13 13 13
17 19 19 18 17 16 16 16 15 15 15 16 16 16 17 16 16 16 15 15 15 15 15 15 15 15 15 15 14 14 14 13 13 13 13 13 13 13 13 13 13 13 13
18 18 19 18 17 16 16 16 15 15 15 16 16 17 17 17 17 16 16 15 15 15 15 15 15 15 15 15 14 14 14 13 13 13 13 13 13 13 13 13 13 13 13
18 18 18 18 17 17 16 16 16 15 15 15 16 16 17 17 17 16 16 16 16 16 15 15 15 15 15 15 15 14 14 13 13 13 13 13 13 13 13 13 13 13 13
17 17 18 18 17 17 17 17 16 16 15 15 16 16 17 17 17 17 16 16 16 16 16 15 15 15 15 15 15 14 14 13 13 13 13 13 13 12 12 13 13 13 13
17 17 17 17 17 17 17 17 17 16 16 16 16 16 17 17 17 17 17 16 16 16 16 16 16 15 15 15 15 14 14 13 12 13 13 13 12 12 12 12 12 12 12
17 16 16 16 16 16 16 17 17 17 17 16 17 17 17 17 16 16 16 16 16 16 16 16 16 15 15 15 15 14 14 13 12 13 13 12 12 12 12 12 12 12 12
17 16 16 16 16 15 15 16 17 17 17 16 16 17 16 15 14 15 16 16 16 16 16 16 16 15 15 15 14 14 14 13 12 13 13 12 12 12 12 12 12 12 12
16 16 16 16 16 16 15 16 15 16 16 16 16 16 16 15 14 14 15 16 16 16 16 16 15 15 15 14 14 14 13 13 12 13 13 12 12 12 12 12 12 12 11
16 16 16 16 16 16 15 15 15 15 15 15 16 15 15 15 14 14 14 15 15 15 16 15 15 14 14 14 14 13 13 13 12 12 12 12 12 12 12 12 12 11 11
17 16 16 16 16 16 16 15 15 15 15 15 15 15 15 15 15 14 14 14 14 14 14 14 14 14 13 13 13 13 13 12 12 12 12 12 12 12 12 11 11 11 11
17 17 17 17 16 16 16 16 16 15 15 15 15 15 15 15 15 14 14 14 14 14 13 13 13 13 13 13 13 13 13 12 12 11 12 12 12 12 12 11 11 11 11
18 17 17 17 16 16 16 16 16 16 15 15 15 15 15 15 15 14 14 14 14 13 13 13 13 13 13 13 13 13 13 12 12 11 11 12 12 12 12 11 11 11 11
18 17 17 17 17 16 16 16 16 15 15 16 15 15 15 15 15 14 14 14 14 13 13 13 13 13 13 13 13 13 12 12 12 11 11 11 11 12 12 11 11 11 10
17 17 17 17 17 16 16 16 15 15 15 16 16 16 16 15 15 14 14 14 14 13 13 13 13 13 13 13 12 12 12 12 12 12 11 11 11 11 12 11 11 11 10
16 16 17 17 17 16 16 16 16 16 16 16 16 16 16 16 15 15 14 14 14 13 13 13 13 12 12 12 11 11 11 11 11 11 11 11 11 11 11 11 11 11 10
15 15 16 16 16 16 16 16 16 16 16 16 16 16 16 16 16 15 14 14 14 13 13 13 12 12 12 12 11 11 10 10 11 11 11 11 11 11 11 11 11 11 10
14 14 15 15 15 16 16 16 16 15 15 15 15 15 15 15 15 15 14 13 13 13 13 13 12 12 12 12 11 11 11 12 11 11 11 11 11 11 11 10 10 10 10
12 13 14 14 14 15 15 15 15 15 15 15 14 14 14 14 14 14 13 13 13 12 12 12 12 12 11 11 11 11 11 12 11 11 11 10 10 10 10 10 9 9 9
12 12 13 13 13 13 14 14 14 14 14 14 14 14 14 14 14 13 13 13 12 12 12 12 12 12 11 11 11 11 10 10 11 11 11 11 10 10 9 9 8 8 8
11 11 12 12 12 12 12 12 12 12 13 13 13 13 13 13 13 13 13 13 12 12 12 11 11 11 11 11 11 10 10 10 10 10 10 10 10 10 9 8 7 7 7
Wind_Speed
11 16 19 18 17 16 16 15 15 15 15 15 15 14 12 10 9 8 8 8 9 11 14 16 16 16 16 16 16 15 15 14 15 15 15 15 14 13 13 14 13 12 12
15 19 19 18 17 16 16 16 16 16 16 15 14 13 11 9 8 8 8 10 12 15 16 16 16 16 16 15 15 14 13 12 11 12 14 14 13 12 13 15 14 12 12
17 19 19 18 17 16 16 17 17 16 16 15 13 12 11 9 9 10 11 13 15 17 17 17 16 15 15 14 14 13 10 8 6 3 4 12 13 11 11 11 11 11 11
17 18 18 18 17 17 18 18 17 16 15 14 13 11 10 10 11 13 15 16 17 17 17 16 15 15 14 13 12 11 7 4 4 5 6 12 12 10 10 10 10 9 9
14 17 19 18 18 18 19 18 17 16 15 13 12 11 10 11 13 15 16 17 17 16 16 15 14 13 13 12 10 8 4 5 8 6 13 15 13 11 11 12 12 11 11
13 19 19 18 18 19 18 17 16 15 14 13 12 11 11 12 14 15 16 16 15 15 14 13 13 12 11 10 8 5 3 6 7 10 15 16 14 14 16 16 17 17 17
15 18 18 18 18 18 18 17 16 15 14 13 13 12 11 12 13 13 14 14 14 13 13 12 11 10 9 8 7 4 4 7 4 12 15 16 14 15 17 17 18 18 18
16 16 17 18 18 17 17 16 16 16 15 14 13 12 12 12 12 11 11 12 12 12 11 10 10 8 7 6 5 2 4 7 6 13 16 15 14 15 16 17 17 17 16
15 15 14 15 15 15 15 15 15 16 15 14 13 12 12 12 11 10 10 10 11 11 10 10 9 7 7 6 4 1 3 6 5 11 14 14 14 15 14 14 14 14 14
13 12 11 14 14 13 13 13 15 16 16 15 14 14 13 12 11 10 10 10 10 10 10 9 8 7 7 6 4 1 3 6 1 13 14 13 13 13 12 12 12 12 12
9 11 9 11 14 15 15 14 14 16 16 16 15 16 15 13 12 11 11 11 9 9 9 9 8 8 7 6 4 3 4 7 6 14 14 14 12 11 11 11 11 11 11
5 7 8 7 9 13 13 14 13 13 14 14 14 15 14 14 15 14 15 13 10 9 10 10 9 9 8 8 6 6 7 7 8 14 14 14 12 10 10 10 10 10 10
3 2 4 5 6 7 8 12 11 12 14 15 16 18 15 14 12 13 13 12 11 10 10 10 10 10 11 10 10 9 6 1 7 14 15 14 12 10 10 9 9 9 9
8 6 3 2 3 4 7 7 9 9 11 12 14 18 15 9 8 11 11 13 13 12 12 12 11 12 11 8 9 8 5 2 6 14 15 15 13 11 10 9 9 9 9
10 10 8 6 5 3 3 4 5 6 9 13 14 16 15 8 5 7 9 13 14 14 13 11 11 10 9 9 9 6 7 8 8 15 15 15 14 12 10 9 9 9 9
9 11 11 10 8 6 5 3 3 5 8 11 12 13 15 12 8 6 6 8 11 13 13 12 10 7 6 6 6 6 6 8 9 16 17 16 15 13 12 11 10 9 9
7 10 12 12 11 10 9 7 6 6 6 6 9 14 16 14 11 8 4 4 9 13 13 11 10 8 5 5 5 6 6 6 8 14 18 17 15 14 13 12 11 10 10
3 5 9 10 11 11 10 8 7 7 7 6 8 11 15 16 14 10 5 5 10 11 9 5 5 5 5 6 5 5 4 4 6 10 17 18 18 15 14 14 13 12 11
3 3 4 6 8 9 9 7 7 8 7 7 8 9 12 15 16 11 6 7 11 7 5 6 5 5 5 6 6 5 5 4 5 7 10 16 19 19 17 15 14 14 12
2 3 3 3 5 6 6 6 6 6 6 7 7 9 11 12 15 13 8 9 10 6 7 6 7 6 5 6 5 5 5 5 5 5 7 11 16 19 20 18 16 15 14
3 3 4 4 3 3 3 4 5 6 7 7 7 11 12 13 13 11 6 8 8 9 9 8 7 7 6 5 4 2 2 3 6 6 6 6 10 16 19 20 19 17 16
5 5 5 5 5 5 3 2 3 4 5 7 7 10 15 15 14 10 8 8 9 8 10 11 8 7 6 7 5 4 3 5 6 7 6 7 8 13 14 19 21 20 19
6 7 6 6 6 6 6 4 3 2 3 4 6 8 10 14 14 12 9 8 8 9 9 11 11 11 9 8 6 6 5 7 4 5 8 8 8 8 8 14 18 20 20
5 4 6 6 6 6 5 4 5 4 5 6 5 6 8 11 13 15 12 10 10 8 9 10 11 9 8 7 6 6 4 4 5 4 4 6 8 8 9 9 13 17 19
4 3 4 6 5 5 4 5 5 6 6 5 6 7 7 7 9 12 13 12 12 10 10 10 10 11 10 9 7 5 6 3 2 4 4 5 6 7 7 7 10 13 17
3 3 4 5 5 5 5 5 5 6 7 7 8 7 6 5 6 8 10 11 12 12 12 12 11 11 11 10 9 7 6 5 6 4 3 3 4 4 4 4 6 10 14
Wind_Direction
125 135 142 141 141 138 135 133 129 126 124 119 112 105 97 88 81 79 83 90 95 102 101 96 89 85 84 83 82 81 81 84 87 87 82 75 71 69 57 49 76 66 65
129 136 140 140 142 141 138 131 125 121 118 114 109 104 96 87 81 85 92 100 101 102 101 95 90 87 86 84 83 82 85 92 99 101 98 85 73 67 60 56 61 64 64
126 135 138 139 141 140 135 129 125 121 117 113 110 105 99 91 87 88 98 102 103 102 100 95 92 90 88 85 83 82 85 90 87 92 122 103 83 69 64 60 61 61 62
126 138 138 137 139 139 134 131 127 123 119 116 114 110 106 99 91 92 99 99 100 99 98 97 95 92 90 87 84 82 80 60 16 354 75 91 80 69 65 63 64 62 61
129 135 132 136 136 135 134 133 130 126 123 120 117 115 113 106 96 95 97 99 100 100 100 99 97 94 92 89 87 83 61 9 350 36 78 82 75 71 71 70 67 67 67
124 121 131 131 133 134 135 134 132 130 128 125 122 121 119 111 101 98 100 102 103 104 103 103 101 97 94 92 90 80 22 351 353 66 75 80 78 79 78 75 73 71 70
122 124 132 131 134 136 138 138 138 135 133 131 129 127 125 117 108 106 107 108 109 109 108 106 104 99 96 95 91 70 357 345 38 84 83 82 84 84 79 77 74 70 68
118 125 131 132 134 137 140 143 143 140 139 137 135 133 129 125 122 120 118 117 117 116 114 111 107 101 97 96 92 57 342 342 44 87 89 88 89 86 81 77 74 71 69
121 127 134 135 134 138 142 147 149 147 145 144 141 136 132 131 133 134 132 131 129 126 123 119 114 109 105 103 101 72 323 333 13 92 95 92 93 88 84 79 76 73 71
125 133 144 150 150 149 150 152 154 153 153 151 147 142 139 140 144 147 147 144 141 138 135 132 127 123 119 118 122 152 290 308 42 103 103 101 97 92 86 83 79 77 76
130 139 152 159 159 162 164 162 157 160 161 157 154 153 154 161 164 170 165 153 152 151 151 147 144 142 140 141 154 195 257 277 107 104 110 112 105 99 93 89 86 84 82
136 142 153 158 157 166 163 156 169 172 170 172 169 168 182 192 182 176 163 161 166 167 165 164 163 166 169 171 179 206 246 256 121 117 124 123 117 110 105 100 97 93 89
176 162 147 154 157 161 141 159 177 178 177 194 185 179 200 210 176 148 154 166 175 177 178 176 179 198 209 186 181 209 234 271 116 126 135 133 129 124 119 114 109 104 98
179 188 209 180 160 168 155 174 177 177 177 192 198 186 196 205 176 162 167 175 185 191 193 180 199 214 213 177 189 204 172 227 123 129 139 140 141 140 136 132 126 119 111
171 175 191 202 195 194 180 191 192 187 179 187 196 194 194 197 180 181 183 179 188 191 192 185 205 201 191 191 200 195 179 202 153 138 147 150 150 151 152 149 144 136 127
173 175 182 195 199 193 200 210 216 211 191 190 188 194 202 202 191 191 192 187 190 193 188 187 202 195 183 183 188 197 203 197 164 144 151 155 158 161 164 164 160 152 143
185 178 180 190 196 194 198 203 217 226 215 203 191 195 205 211 202 198 195 194 194 196 191 187 200 194 177 173 182 196 205 200 174 151 156 160 163 169 173 175 171 166 158
221 188 183 188 192 196 197 196 205 216 222 215 211 201 205 212 210 203 195 205 200 197 193 185 192 184 175 170 179 195 193 188 185 167 162 165 169 173 180 182 178 174 169
240 244 206 191 193 199 200 194 195 202 212 217 220 220 215 214 214 207 201 203 202 198 192 192 189 178 178 181 188 189 186 179 196 189 169 169 172 175 179 183 179 178 176
339 322 301 233 206 211 208 200 196 200 203 208 216 226 231 226 219 212 206 205 200 195 200 196 190 188 183 181 187 183 190 187 191 194 188 178 173 173 177 177 174 176 181
351 332 318 309 287 253 224 208 203 207 208 208 212 220 229 236 232 220 211 206 203 203 201 196 186 194 195 163 145 175 243 219 207 202 195 184 178 178 176 176 177 180 186
13 10 348 335 326 318 300 263 227 219 216 215 213 215 220 226 233 234 224 218 210 207 201 199 196 189 190 171 152 139 209 247 247 217 199 197 187 183 184 182 183 184 186
34 18 351 341 333 327 329 329 317 295 264 241 229 218 215 218 222 228 233 230 223 215 213 208 203 196 198 195 180 167 176 208 210 221 214 203 193 187 190 190 189 186 182
44 18 344 333 325 321 324 313 296 279 266 255 249 236 223 215 214 217 223 226 229 226 222 217 211 207 193 199 216 227 214 162 164 199 230 212 200 195 192 195 194 188 182
51 14 337 324 319 320 317 305 290 280 277 283 286 272 253 233 219 215 214 217 223 226 228 226 219 213 207 200 200 211 237 256 198 155 199 211 212 210 196 189 187 184 179
51 12 339 328 329 332 323 310 291 279 282 291 293 290 283 269 244 225 216 217 219 221 224 226 225 220 215 210 204 198 194 205 213 197 178 181 205 214 192 178 178 176 174
Height
1522 1525 1528 1530 1532 1534 1537 1539 1541 1543 1544 1545 1546 1547 1547 1547 1547 1547 1547 1548 1549 1550 1551 1552 1553 1553 1553 1553 1554 1555 1556 1557 1557 1558 1558 1558 1558 1558 1558 1558 1558 1559 1560
1522 1525 1528 1530 1532 1535 1538 1540 1542 1544 1545 1546 1547 1547 1547 1548 1547 1548 1548 1549 1550 1552 1553 1554 1554 1554 1554 1554 1555 1556 1557 1558 1559 1559 1559 1560 1559 1559 1559 1560 1560 1561 1561
1521 1525 1528 1531 1533 1536 1538 1541 1543 1544 1545 1546 1547 1547 1548 1548 1549 1549 1550 1551 1553 1554 1555 1555 1556 1556 1556 1556 1557 1558 1559 1560 1560 1561 1561 1561 1562 1561 1561 1562 1562 1562 1563
1522 1525 1528 1531 1534 1536 1539 1541 1543 1545 1546 1547 1547 1548 1548 1549 1550 1551 1552 1553 1555 1556 1556 1557 1558 1558 1558 1558 1559 1560 1561 1562 1563 1563 1564 1564 1563 1563 1563 1563 1563 1564 1564
1523 1526 1529 1532 1534 1537 1539 1542 1543 1545 1546 1547 1548 1548 1549 1550 1551 1552 1554 1555 1556 1557 1558 1559 1560 1560 1560 1561 1561 1562 1563 1564 1564 1565 1566 1565 1565 1565 1565 1565 1565 1565 1565
1524 1526 1530 1532 1535 1538 1540 1542 1544 1545 1546 1547 1548 1549 1550 1551 1552 1554 1555 1557 1558 1559 1560 1561 1561 1562 1562 1563 1563 1564 1565 1565 1566 1566 1567 1566 1566 1566 1566 1566 1566 1566 1567
1525 1527 1530 1533 1535 1538 1540 1542 1544 1545 1547 1548 1549 1550 1551 1552 1553 1555 1556 1558 1559 1560 1561 1562 1563 1563 1564 1564 1565 1566 1566 1567 1567 1568 1568 1567 1567 1567 1567 1567 1567 1567 1568
1526 1527 1531 1533 1536 1538 1541 1543 1544 1546 1547 1548 1549 1551 1552 1553 1554 1555 1557 1558 1560 1561 1562 1563 1564 1565 1565 1566 1566 1567 1568 1568 1569 1569 1568 1568 1568 1568 1568 1568 1568 1568 1568
1527 1528 1531 1533 1536 1539 1541 1543 1545 1546 1547 1549 1550 1551 1552 1553 1555 1556 1558 1559 1561 1562 1563 1564 1565 1565 1566 1567 1568 1568 1569 1569 1570 1570 1569 1569 1569 1568 1568 1568 1567 1567 1567
1528 1529 1532 1534 1537 1539 1541 1543 1545 1546 1548 1549 1550 1551 1553 1554 1555 1557 1558 1560 1561 1563 1564 1565 1565 1566 1567 1568 1568 1569 1570 1570 1570 1570 1569 1569 1569 1568 1568 1567 1567 1566 1565
1530 1531 1532 1534 1537 1539 1541 1543 1544 1546 1547 1549 1550 1552 1553 1554 1556 1557 1558 1560 1561 1562 1564 1565 1565 1566 1567 1568 1568 1569 1570 1570 1571 1569 1569 1569 1569 1568 1567 1567 1566 1565 1564
1530 1532 1533 1536 1537 1539 1540 1542 1544 1545 1547 1548 1549 1551 1553 1554 1555 1556 1558 1559 1561 1562 1563 1564 1565 1566 1566 1567 1568 1569 1569 1569 1570 1568 1569 1569 1568 1567 1567 1566 1565 1565 1564
1528 1531 1534 1536 1538 1540 1540 1541 1543 1544 1545 1547 1548 1550 1552 1553 1555 1555 1557 1558 1560 1561 1562 1563 1564 1565 1565 1566 1567 1567 1568 1569 1569 1566 1567 1567 1567 1566 1566 1565 1565 1564 1564
1526 1529 1531 1534 1536 1538 1539 1541 1542 1543 1544 1546 1547 1549 1551 1552 1554 1554 1555 1556 1558 1559 1560 1561 1562 1563 1564 1564 1565 1566 1566 1567 1567 1565 1565 1566 1565 1565 1565 1564 1564 1563 1563
1525 1527 1529 1531 1534 1536 1538 1540 1542 1543 1544 1545 1546 1548 1549 1551 1552 1553 1553 1554 1555 1556 1557 1559 1560 1561 1562 1563 1563 1564 1564 1565 1565 1563 1563 1564 1564 1563 1563 1563 1563 1562 1562
1524 1526 1527 1529 1531 1533 1535 1537 1539 1542 1543 1544 1545 1546 1547 1549 1550 1551 1552 1552 1553 1554 1555 1556 1558 1559 1559 1560 1561 1561 1562 1562 1562 1561 1561 1561 1561 1561 1561 1561 1561 1561 1561
1523 1524 1525 1527 1528 1530 1532 1534 1536 1539 1541 1542 1543 1544 1545 1546 1547 1548 1549 1550 1550 1552 1553 1553 1554 1556 1556 1556 1557 1558 1559 1559 1559 1558 1557 1558 1558 1558 1559 1559 1559 1559 1559
1521 1523 1524 1525 1527 1528 1530 1532 1533 1535 1537 1539 1540 1541 1542 1542 1544 1545 1545 1546 1548 1548 1549 1550 1551 1552 1552 1552 1553 1554 1555 1556 1556 1556 1554 1553 1554 1555 1555 1556 1556 1556 1557
1519 1521 1522 1523 1525 1526 1528 1529 1530 1532 1533 1535 1536 1537 1538 1539 1540 1540 1541 1542 1543 1544 1545 1546 1546 1547 1548 1548 1549 1550 1550 1551 1552 1552 1551 1550 1550 1550 1551 1552 1553 1553 1554
1515 1517 1519 1521 1522 1524 1525 1526 1527 1528 1529 1530 1531 1532 1533 1534 1535 1536 1536 1537 1538 1539 1540 1540 1541 1542 1543 1544 1545 1545 1546 1546 1547 1547 1547 1547 1546 1546 1547 1548 1549 1549 1550
1512 1514 1515 1517 1519 1520 1522 1522 1523 1523 1524 1525 1526 1527 1528 1529 1530 1530 1530 1531 1532 1533 1533 1534 1536 1536 1537 1539 1540 1540 1540 1541 1541 1541 1542 1542 1541 1542 1542 1542 1544 1545 1546
1509 1510 1511 1512 1514 1515 1516 1517 1518 1518 1519 1519 1520 1520 1521 1522 1523 1524 1525 1525 1526 1527 1527 1528 1529 1529 1530 1532 1532 1533 1534 1535 1533 1533 1534 1535 1535 1536 1537 1537 1538 1539 1540
1505 1506 1507 1508 1509 1510 1511 1511 1512 1513 1513 1514 1514 1514 1515 1515 1516 1517 1518 1519 1520 1521 1521 1521 1522 1523 1523 1524 1524 1526 1526 1524 1525 1526 1526 1527 1528 1529 1530 1531 1532 1533 1534
1503 1503 1503 1504 1504 1505 1505 1506 1506 1506 1507 1508 1509 1509 1510 1510 1510 1510 1511 1512 1513 1514 1515 1515 1516 1516 1517 1516 1517 1517 1519 1519 1519 1518 1519 1520 1521 1521 1523 1524 1526 1527 1528
1501 1501 1501 1501 1501 1501 1501 1501 1501 1501 1501 1502 1503 1503 1504 1504 1504 1504 1504 1505 1505 1507 1508 1509 1509 1510 1509 1509 1509 1510 1512 1514 1513 1513 1512 1513 1514 1515 1516 1518 1519 1521 1522
1499 1499 1498 1498 1498 1497 1497 1497 1496 1496 1496 1496 1496 1496 1497 1498 1498 1498 1498 1498 1498 1499 1500 1501 1502 1502 1502 1502 1503 1503 1504 1506 1507 1507 1507 1506 1507 1509 1510 1512 1513 1514 1516